ONEWEB-0255, 48973

Orbit data source: Space-Track

ONEWEB-0255, 48973 is a payload satellite owned by One Web (NAA) (UK) in LEO that was launched on Thu, 01 Jul 2021 UTC via a SOYUZ-2-1B launch vehicle from the Vostochny Cosmodrome (VOSTO). Payload-class satellites include a variety of spacecraft equipped with specific instruments for various scientific and technological missions. These include communications satellites like Starlink; space stations such as the ISS; scientific satellites like the Hubble; Earth observation satellites from companies like Planet Labs, Umbra, and HawkEye 360; GPS; miniature CubeSats for education and research; and military/defense satellites.

Loading next visibility...
Identifier
48973, 2021-060G
Orbit
LEO
Country
Flag of UKUK
Related business
Manufacturer
One Web
Mission
Operational Commercial Communications
Bus & Motor
ARROW, Unknown motor
Mass
148 kg wet, ~140 kg dry
Launch date (UTC)
2021-07-01 (4 years ago)
Launch vehicle
SOYUZ-2-1B
Launch site
Vostochny Cosmodrome (VOSTO)
Object type
Payload
Rocket body
Debris
Shape & HBR
Trap Box + 2 Pan, 6.7 m
Radar Cross Section
3.464 m², Large (>1 m²)

Expand to show TLE details & history
Last TLE update: 19 hours ago

TLE from 19 hours ago
0 ONEWEB-0255
1 48973U 21060G   25348.82753835 -.00000023  00000-0 -93405-4 0  9995
2 48973  87.9034 265.4935 0001797  67.5727 292.5594 13.16594597215404
Epoch: 2025-12-14T19:51Z
TLE epoch observation values (Epoch: 2025-12-14T19:51:39.313Z)
Latitude
-0.00003°
Longitude
-116.15517°
Altitude
1,200.13 km
Speed
7.254 km/s
True Right ascension
17h 41m 58s
True Declination
0° 00' 00"
Sunlit
Object was in daylight at epoch
Visualization orbit readout
Latitude
Unknown
Longitude
Unknown
Altitude
Unknown
Speed
Unknown
Apparent Right ascension
Unknown
Apparent Declination
Unknown
Sunlit
N/A
Visualization observer readout
Local Sidereal Time
13:18:52
Azimuth
Unknown
Elevation
Unknown
Doppler factor
Unknown
Orbital elements
Apogee altitude
1,196.227 km
Perigee altitude
1,193.505 km
Semi-major axis
7,573.003 km
Eccentricity
0.00018
Inclination
87.9034°
RAAN
265.4935°
Arg. of periapsis
67.5727°
True anomaly
292.54038°
Mean anomaly
292.5594°
Eccentric anomaly
292.54989°
Mean motion
3.29337 °/min
Orbital period
109.31 mins
BSTAR
-0.000093405
Loading maneuver chart data...
Computing Atmospheric mass density...
Loading historical data...
Loading historical data...
Loading historical data...
Loading historical data...
Loading historical data...
Loading historical data...
Loading historical data...

Documentation

Showing up to 5 results
|